Theta_e
321 320 320 320 321 322 323 326 326 328 334 337 337 336 336 334 335 342 343 341 345 345 345 347 345 344 345 347 350 351 352 352 352 352 353 353 353 353 353 353 353 351 348 346 345 346 346 346 346 347 347 347 347 346 346 346 346 346 345 345 345 345 345 345 345 345 345 344 344 344 344 343 343 343 344 344 344 344 345 346 347 349 349 349 349 348
321 319 320 321 322 323 323 324 325 326 333 337 336 335 335 335 336 341 342 341 344 344 344 346 345 344 345 346 350 351 351 351 352 352 352 352 352 352 353 353 353 352 350 349 347 346 347 346 345 346 347 346 346 346 347 347 347 346 346 345 345 345 345 344 344 344 344 344 344 344 343 342 342 343 343 344 344 344 346 347 348 349 349 348 348 347
320 319 320 322 321 322 323 323 324 326 332 335 335 334 333 334 336 338 340 341 342 343 344 345 344 344 344 344 348 351 350 351 352 351 352 352 352 352 352 353 353 353 352 350 347 347 347 346 346 346 346 346 346 346 347 347 347 347 347 346 346 345 345 345 345 344 344 344 344 345 344 343 343 344 344 345 345 345 346 347 348 348 348 347 346 344
318 319 321 321 319 321 322 322 324 325 329 333 334 332 330 334 335 333 336 341 342 341 343 344 343 343 344 344 346 350 351 352 351 351 351 351 352 352 352 351 352 352 351 349 347 347 346 346 346 346 346 346 346 346 347 347 347 348 347 347 347 346 346 346 345 344 344 345 346 346 346 345 346 346 346 347 346 346 346 346 347 347 346 344 343 341
319 320 321 319 319 322 323 323 325 324 324 328 332 332 331 333 335 334 337 341 342 340 341 342 339 339 344 344 345 348 350 350 351 350 350 350 350 351 350 351 350 349 349 347 346 346 345 345 346 346 347 346 347 347 347 347 347 347 348 347 347 347 346 346 345 344 344 345 346 347 347 347 347 347 347 347 347 346 345 344 344 344 344 344 342 340
320 319 319 319 319 321 322 324 325 324 323 323 328 331 332 333 335 336 338 339 336 335 340 341 334 335 343 345 344 347 348 349 350 350 350 349 349 349 350 350 349 348 347 345 344 344 344 345 346 346 347 347 347 347 347 347 347 347 347 348 348 347 346 345 344 344 344 345 346 346 347 347 347 347 345 344 344 345 344 343 342 343 344 343 342 340
320 319 319 320 320 320 322 323 324 325 323 321 325 328 330 332 333 335 337 335 331 333 339 341 334 332 338 343 346 347 348 349 349 349 350 350 349 348 349 348 348 349 348 346 344 344 344 345 345 346 346 347 347 347 347 347 347 347 347 348 348 347 346 345 344 344 344 344 345 345 346 346 345 345 343 341 342 344 344 343 343 344 344 343 341 340
320 319 318 320 320 321 321 321 323 325 322 321 325 327 328 331 333 335 336 332 332 335 338 341 338 333 332 339 346 346 347 349 349 349 349 349 349 349 348 347 347 348 347 347 345 344 345 344 345 346 345 346 346 347 347 346 347 347 347 347 348 347 346 346 345 345 344 344 345 345 345 346 345 344 343 341 343 344 344 343 344 344 344 342 339 337
319 319 319 320 320 320 321 322 323 324 323 324 326 326 328 331 332 336 334 331 334 335 333 337 337 334 332 338 345 346 346 348 349 348 348 349 349 348 348 347 347 347 347 347 346 345 345 344 345 345 345 345 345 346 347 347 347 347 347 347 347 348 347 347 347 346 346 345 345 345 345 345 344 344 344 344 344 344 344 344 345 344 342 339 336 334
320 320 320 321 321 321 322 323 323 324 324 323 324 325 327 330 333 336 334 333 334 332 330 334 335 333 331 334 341 344 344 347 348 348 348 349 349 348 348 348 347 347 346 346 346 345 345 345 345 345 345 345 345 346 346 346 347 347 347 347 347 348 347 346 347 347 348 347 346 345 345 345 344 344 344 344 344 344 344 345 344 342 339 336 334 332
321 320 320 321 322 322 322 323 323 324 324 323 325 326 327 330 334 336 335 334 332 329 330 333 334 333 329 331 340 344 344 347 347 348 347 348 348 348 348 348 348 347 346 346 346 345 345 345 345 345 345 345 345 345 346 346 347 347 347 347 347 347 347 347 346 347 348 348 347 345 345 345 344 344 344 343 342 341 342 341 339 336 334 334 332 331
321 321 322 321 321 322 322 322 323 324 324 324 327 326 324 327 329 329 331 331 329 327 329 332 335 333 328 330 340 345 346 346 346 347 347 346 347 348 348 347 348 347 347 346 346 346 345 345 345 345 345 345 345 345 346 347 347 347 347 347 347 347 347 347 347 347 349 349 347 345 344 344 343 343 343 342 341 339 338 336 332 331 332 332 331 331
321 322 322 321 321 322 322 322 322 323 324 325 326 324 321 322 323 324 325 327 326 326 328 330 333 333 330 334 341 344 343 343 344 346 346 347 347 347 347 347 347 347 346 346 346 346 346 345 345 345 345 345 345 345 346 347 347 347 347 347 347 347 347 347 347 347 348 349 347 345 344 343 342 341 341 341 340 338 336 334 331 328 329 328 328 327
319 321 320 320 321 322 322 321 320 321 323 324 324 322 321 320 321 322 324 325 325 325 326 329 332 331 330 336 342 342 341 342 344 344 345 346 346 346 346 346 346 347 346 346 346 346 346 345 345 345 345 346 345 345 346 347 347 347 347 348 347 347 347 347 347 347 348 349 347 344 342 342 340 339 339 339 339 336 334 333 331 327 326 325 324 323
317 318 320 321 321 322 323 322 322 323 324 324 326 325 322 321 320 321 323 322 322 324 326 329 331 328 327 334 341 341 340 341 341 342 343 344 344 343 344 345 345 346 346 345 345 346 346 345 345 345 345 346 345 346 347 347 347 347 346 347 347 347 347 347 347 348 349 348 346 343 342 340 338 337 337 336 336 333 332 331 330 327 325 324 322 320
317 318 321 321 321 322 323 323 324 325 322 324 327 324 322 324 324 322 323 324 323 323 326 328 329 331 333 336 339 338 338 339 338 340 341 341 342 342 343 344 344 345 345 345 345 345 345 345 345 345 345 345 346 346 346 347 347 346 346 346 347 347 347 347 348 348 349 348 344 341 340 339 336 335 335 335 334 332 330 329 328 325 324 322 320 318
316 318 322 321 319 321 323 324 324 323 321 322 322 321 323 327 327 323 321 325 324 321 325 328 327 329 332 333 338 339 337 338 340 340 339 341 343 342 343 343 343 343 344 344 344 344 345 345 345 345 345 345 345 345 346 347 345 345 346 345 346 347 347 347 348 349 349 347 343 340 339 336 332 333 333 334 333 330 331 331 327 324 324 321 318 317
319 318 321 322 320 320 322 323 324 324 324 322 320 322 325 325 328 329 324 323 323 320 323 327 325 325 325 328 337 342 338 338 340 340 340 342 343 343 343 343 341 342 343 342 343 344 344 345 344 345 345 345 345 344 345 346 346 345 346 346 346 346 347 347 348 349 349 346 341 339 338 333 330 331 332 334 333 333 334 333 328 325 323 320 317 316
321 318 320 323 322 321 321 321 321 323 324 322 322 325 325 320 324 329 325 322 322 320 322 324 324 325 324 326 333 338 340 343 343 344 342 340 342 343 342 342 341 341 342 342 342 343 344 344 345 345 345 345 345 345 345 345 345 345 346 346 346 346 346 346 348 350 349 345 341 338 337 333 330 330 332 334 335 336 339 335 328 325 323 319 317 317
322 320 319 321 322 321 321 319 318 319 321 322 323 325 325 322 324 326 324 321 321 320 320 322 323 324 326 331 334 335 344 351 347 347 346 341 341 343 342 342 341 340 341 341 342 342 343 344 344 344 345 345 345 344 344 345 346 346 345 346 346 346 347 346 348 349 348 345 341 339 337 334 331 330 330 332 335 338 338 333 327 325 322 318 316 316
324 322 319 321 320 319 319 320 319 320 321 320 320 321 322 324 324 324 324 322 321 321 322 321 321 322 330 338 340 338 344 349 348 349 349 345 341 340 340 340 340 340 340 341 341 342 342 343 344 344 345 345 345 345 345 346 346 346 345 345 345 346 347 347 348 349 349 346 342 339 337 335 333 332 333 335 337 339 338 333 328 326 324 320 317 316
324 323 320 319 318 317 320 322 322 322 323 321 321 321 321 322 322 320 321 323 321 322 323 322 319 321 332 340 340 343 344 341 343 347 346 344 341 339 338 338 338 339 339 341 340 341 342 342 343 344 345 345 345 346 346 346 345 346 346 346 345 346 347 347 348 348 349 349 346 341 337 336 335 335 336 337 337 337 337 332 328 325 321 319 317 316
326 326 322 319 320 322 322 323 322 321 324 324 322 324 323 324 322 318 319 322 321 322 323 322 319 322 338 348 340 341 343 338 339 342 341 340 337 337 338 336 337 338 338 340 340 341 341 342 343 344 344 345 345 346 346 346 345 346 345 345 345 346 346 347 348 348 349 351 349 343 336 334 335 335 335 335 335 336 334 328 325 323 319 316 316 316
326 326 323 320 323 325 322 322 322 321 322 322 321 325 323 323 323 320 325 327 323 321 321 322 319 321 342 360 347 341 343 339 337 337 338 338 335 334 336 336 336 337 338 339 340 341 341 342 343 344 343 345 345 345 346 346 346 345 345 345 346 346 346 347 348 348 349 351 349 343 338 334 332 331 332 334 337 337 332 325 324 321 318 317 316 315
324 326 324 319 320 321 321 321 321 320 322 320 322 324 322 325 325 324 331 331 324 322 323 321 318 321 340 360 351 342 339 336 336 336 336 337 336 335 335 335 335 336 337 339 339 340 341 341 343 343 343 345 344 345 346 346 346 345 345 346 345 346 346 347 348 349 349 350 348 346 343 335 329 329 331 334 338 338 333 326 323 320 317 318 318 316
325 329 325 319 318 319 319 320 320 321 322 321 323 324 322 325 324 323 327 324 321 327 328 321 319 325 342 353 347 342 341 339 340 339 337 336 334 334 336 335 336 336 336 338 339 340 341 341 343 343 344 344 344 345 346 345 346 346 345 346 346 346 347 347 349 349 349 350 349 347 344 337 332 332 331 332 335 337 334 327 321 319 318 319 321 320
333 334 328 324 323 320 321 325 327 326 322 319 321 322 322 323 324 326 325 320 324 329 326 326 329 328 334 343 344 344 344 343 345 343 340 338 333 334 336 335 336 337 337 338 338 340 341 341 343 343 343 344 344 344 345 345 346 346 345 346 346 348 348 348 349 349 350 351 349 347 346 342 339 335 332 332 334 338 338 332 323 319 319 321 322 321
332 329 326 329 328 325 326 329 328 326 322 321 322 322 322 323 324 325 322 325 334 327 318 333 348 333 329 342 346 346 347 348 351 348 343 339 335 335 336 335 337 338 337 339 338 339 341 340 342 343 343 343 343 344 345 345 345 345 345 346 347 348 348 348 349 349 351 352 351 349 348 347 345 340 335 333 335 339 341 334 324 320 322 324 323 319
328 324 323 326 326 325 326 326 326 325 324 323 323 322 323 324 323 324 323 330 338 326 318 340 355 339 332 338 341 343 348 350 350 345 339 337 336 336 337 336 337 338 338 339 339 339 340 340 341 342 342 342 343 344 344 344 345 346 345 346 347 348 348 348 348 350 351 352 352 351 350 350 350 348 343 335 329 335 341 334 323 321 326 329 327 322
327 327 329 325 321 324 325 324 325 325 324 323 324 324 324 324 323 324 325 329 333 330 327 342 353 344 335 336 339 342 342 341 341 338 337 337 337 336 338 338 338 338 338 339 339 339 340 340 340 341 341 342 342 343 343 343 344 345 345 346 346 347 347 348 349 350 351 351 351 351 352 353 352 351 349 343 332 333 341 336 324 321 327 330 331 329
326 330 334 327 321 323 324 324 324 323 323 322 322 324 324 323 324 324 325 328 330 332 333 337 342 342 337 338 341 340 336 337 339 339 338 338 337 337 338 338 338 338 338 339 340 339 340 340 341 341 341 341 341 342 343 342 343 344 345 345 345 346 347 348 349 350 351 351 351 352 353 353 353 351 350 348 344 342 341 336 327 323 325 329 332 330
329 330 331 327 322 322 323 324 324 322 323 321 321 323 323 322 322 322 325 328 328 330 333 331 330 333 336 339 340 337 338 340 343 344 343 339 337 338 338 338 338 338 338 339 339 339 340 340 341 341 340 340 341 341 341 341 342 343 344 344 345 346 346 347 348 349 349 350 351 352 352 352 352 352 350 349 349 346 340 335 331 326 323 327 332 329
332 329 329 328 324 323 325 325 323 321 320 319 320 324 323 323 324 323 324 329 329 330 331 329 328 333 339 340 338 337 340 343 344 343 341 339 337 337 337 336 337 337 338 339 339 339 340 340 340 341 340 340 339 339 339 340 341 342 342 343 344 344 345 345 346 347 348 350 351 352 352 352 351 351 351 349 349 349 343 337 333 327 324 328 330 325
332 330 331 330 325 324 325 324 322 321 319 320 325 327 325 324 325 324 323 327 328 330 334 335 337 342 343 339 338 341 342 343 341 337 336 338 338 337 338 338 338 338 339 339 340 340 340 340 341 341 341 340 340 340 340 341 342 342 342 343 343 343 344 345 345 346 348 349 351 351 351 352 351 351 351 350 349 350 348 342 333 326 326 329 327 320
332 331 331 330 325 325 326 324 321 320 322 327 334 332 327 325 324 326 329 333 332 332 336 339 340 344 345 339 338 341 340 337 334 332 333 334 334 336 338 339 339 338 339 339 339 340 340 340 341 341 340 341 341 342 342 341 341 341 341 341 343 343 344 344 345 346 348 349 350 351 351 351 351 351 351 349 349 349 349 344 334 326 327 329 324 318
333 331 331 330 327 326 325 323 322 325 328 332 334 332 329 328 326 325 329 334 336 335 335 336 337 341 343 339 337 336 334 333 333 332 332 332 333 335 336 337 339 338 338 339 339 340 340 340 340 341 341 341 340 339 338 336 335 335 336 337 339 340 343 344 345 346 347 348 349 350 350 350 351 351 350 349 348 348 349 344 334 329 329 328 324 321
335 332 330 330 328 327 325 323 325 328 329 331 334 335 332 331 330 329 328 332 338 337 336 337 339 340 338 337 337 334 332 334 336 336 334 333 333 335 336 337 339 338 338 339 339 340 341 340 340 339 337 336 335 334 333 331 330 330 331 333 335 337 340 342 344 346 346 348 349 349 350 350 350 350 350 349 348 348 348 344 337 333 330 325 324 325
338 337 333 330 328 328 326 325 326 325 325 330 335 335 334 333 334 334 333 334 337 337 336 338 339 339 338 336 336 335 334 335 337 338 337 334 333 335 337 337 338 339 340 340 340 340 340 337 336 335 333 332 331 330 329 329 329 330 331 332 333 335 336 338 341 345 346 348 348 349 349 350 350 350 350 349 348 348 347 343 338 334 328 324 325 325
337 339 336 330 328 328 327 325 326 324 327 335 337 334 334 334 334 334 330 330 335 337 337 337 336 336 338 337 337 338 337 335 338 341 338 334 333 335 336 338 339 340 340 340 339 338 336 334 333 333 332 332 331 330 330 330 330 330 330 331 331 331 332 334 339 344 345 347 348 348 349 349 350 349 349 348 348 348 346 343 339 333 326 325 326 322
338 339 335 326 324 328 329 327 326 327 332 337 335 333 334 334 334 332 326 328 337 339 336 335 334 335 338 338 337 340 341 340 341 340 335 333 335 337 337 340 340 339 339 338 336 335 335 335 334 333 333 332 332 332 332 331 331 330 328 328 329 329 330 334 339 343 346 347 348 349 349 349 349 349 348 348 347 346 345 343 338 331 326 326 324 319
340 340 337 331 327 327 328 326 326 329 334 335 332 333 334 333 331 329 328 333 340 339 336 336 334 335 338 338 338 342 344 342 340 337 336 337 336 336 337 338 337 337 337 337 337 338 337 335 334 333 333 334 333 333 333 333 332 330 329 329 329 330 333 336 341 344 346 348 348 348 348 348 348 348 348 347 346 345 342 339 334 329 326 325 322 320
338 339 339 338 333 331 331 328 326 329 333 333 332 333 333 331 329 332 335 338 339 339 339 338 336 338 342 344 346 346 345 344 345 346 347 345 341 338 338 337 337 338 338 339 339 338 336 335 335 335 334 334 334 334 333 333 332 331 330 331 332 334 335 338 342 345 346 347 348 348 348 348 348 347 347 346 345 343 341 336 331 327 325 323 321 323
334 335 338 340 338 335 334 330 326 329 332 333 332 335 336 335 335 338 339 339 339 341 342 342 342 343 345 345 346 346 346 348 349 349 350 348 346 344 342 339 339 339 339 339 338 337 336 336 335 336 336 336 336 335 334 334 334 333 333 333 334 335 336 338 342 346 347 347 347 347 347 347 347 347 346 344 343 341 339 335 329 325 323 322 322 323
334 334 337 339 338 337 338 335 331 333 334 333 332 333 335 335 336 339 340 340 340 341 341 341 341 342 343 344 343 343 343 343 343 342 341 341 341 341 339 338 337 337 336 336 336 336 337 336 336 337 338 338 337 337 337 336 336 336 335 335 336 336 336 338 343 347 348 347 347 347 347 347 346 346 345 344 342 341 338 334 328 324 323 323 323 323
334 334 336 339 340 339 342 343 340 337 335 333 331 331 331 331 333 335 338 338 337 337 338 338 337 336 338 339 338 338 339 337 334 332 332 331 331 330 331 330 330 330 330 329 330 331 332 332 334 336 337 338 339 339 339 340 340 339 338 338 337 337 337 339 344 346 347 347 347 347 346 346 345 345 344 343 342 340 337 332 327 325 325 326 326 324
333 332 336 342 342 338 337 339 338 337 334 331 330 329 329 329 330 330 331 332 332 333 335 335 333 331 331 331 331 333 334 332 330 328 328 328 327 326 326 327 327 328 327 326 326 326 326 326 328 331 334 336 337 338 339 340 340 341 341 340 340 339 341 343 345 346 346 347 347 346 345 345 344 344 344 342 340 339 336 332 329 328 328 329 329 328
331 330 333 338 338 336 337 336 334 335 334 330 328 328 327 328 327 326 327 328 328 330 331 331 331 329 328 328 328 329 329 329 328 327 327 327 327 327 327 328 328 327 327 326 325 326 325 325 325 329 334 336 336 337 338 339 339 341 342 343 343 343 344 345 345 345 345 346 345 344 344 344 344 343 343 341 339 338 336 334 331 329 330 331 331 330
331 330 331 334 335 336 339 337 333 332 331 328 327 327 325 325 325 324 325 325 326 327 328 329 330 330 330 331 331 331 331 331 330 330 330 329 329 328 327 327 326 326 325 325 324 326 328 328 327 330 335 338 337 337 337 337 338 338 339 341 342 344 346 346 345 344 344 344 343 342 342 343 343 343 342 341 339 338 337 336 333 331 331 331 330 330
327 329 331 333 334 334 335 334 333 332 330 328 328 326 323 324 324 324 324 325 325 326 326 327 329 330 332 334 335 335 336 336 335 335 334 333 332 331 330 330 330 329 329 328 328 329 332 333 332 332 335 335 335 335 335 334 335 335 337 339 341 343 345 345 344 344 343 342 341 340 341 341 342 342 341 340 339 338 337 337 335 333 331 331 331 331
326 328 330 332 334 335 334 332 333 334 333 330 327 325 323 324 325 324 324 324 324 324 324 325 326 327 328 331 332 333 335 335 336 336 336 336 335 335 334 333 332 331 331 331 331 331 332 333 332 331 332 333 333 333 333 333 334 335 337 339 341 343 344 344 344 344 342 341 340 340 340 340 341 341 340 339 338 338 338 337 337 335 334 334 334 334
325 326 328 330 332 332 331 329 330 332 332 329 326 324 324 324 325 325 324 324 323 323 323 323 323 324 324 325 327 328 330 331 332 334 334 335 335 336 336 335 334 333 332 331 331 332 332 332 333 333 333 334 334 334 333 334 336 337 338 339 341 343 344 344 343 342 341 340 339 339 339 340 340 340 339 338 338 339 339 339 338 338 337 337 336 336
Wind_Speed
9 6 6 8 8 10 11 10 8 5 9 12 8 6 10 11 9 8 7 9 16 11 12 15 11 10 6 6 11 16 19 19 19 19 19 21 21 22 23 23 27 31 34 32 31 29 28 27 26 26 25 25 25 25 24 23 23 24 24 25 25 24 24 24 24 24 24 24 24 23 23 22 21 20 19 19 18 17 16 15 14 15 15 15 15 14
8 9 9 8 9 11 11 9 7 4 7 10 10 8 9 9 6 7 7 9 14 10 9 9 8 9 5 4 9 14 16 19 22 22 21 22 21 21 23 24 27 29 28 29 31 30 29 28 28 27 27 27 27 27 26 25 24 23 23 24 24 23 24 24 24 25 25 24 24 23 22 21 20 19 19 18 17 16 15 14 14 15 15 14 14 14
7 9 9 8 6 7 5 6 8 7 8 9 8 7 8 7 3 5 6 8 11 9 7 6 9 10 5 4 10 15 18 19 22 23 21 22 21 22 24 26 26 25 26 30 31 31 31 30 30 30 30 29 29 28 28 26 25 24 24 24 23 23 23 23 23 24 24 24 23 22 21 19 18 17 17 16 16 15 15 15 15 15 15 15 14 14
7 6 8 7 6 8 5 5 9 7 7 7 7 8 7 7 7 5 6 8 9 4 2 5 7 8 4 5 9 16 20 17 17 20 19 20 22 25 28 28 28 27 30 34 33 31 32 32 33 33 32 31 31 30 30 29 28 27 26 25 24 23 23 23 23 24 24 23 22 21 20 19 18 17 16 16 16 16 17 17 16 17 16 14 14 14
5 1 6 9 7 11 9 7 10 8 6 6 8 10 7 9 11 7 7 9 7 2 2 5 5 8 7 9 9 12 17 17 16 18 19 20 23 25 25 27 31 34 35 35 35 34 34 35 36 35 34 33 33 33 32 31 30 29 27 25 24 23 23 23 23 23 24 24 23 22 21 20 20 19 18 18 18 18 18 16 16 17 15 14 14 14
6 1 7 12 9 11 10 8 11 10 7 6 8 11 8 11 11 7 11 10 5 5 6 7 6 7 6 11 12 9 12 16 16 18 21 23 24 24 23 24 29 34 36 35 35 35 35 36 36 36 36 35 35 34 33 31 30 29 28 26 24 23 22 22 23 23 24 25 24 24 23 22 22 22 21 20 19 18 17 15 15 16 15 15 15 14
4 3 7 10 11 12 10 9 11 10 8 5 7 9 8 9 10 11 14 11 6 6 8 12 10 7 4 8 11 9 11 15 15 16 21 24 25 26 27 27 29 32 36 38 37 37 37 37 37 37 37 37 37 35 33 31 30 30 29 27 26 24 23 22 22 23 24 25 25 24 24 23 22 22 22 19 17 17 17 16 16 16 16 15 15 15
3 6 6 7 11 12 11 9 9 10 9 4 5 11 11 9 11 14 13 10 6 2 5 12 10 7 7 6 6 10 12 13 15 17 20 24 27 29 29 30 32 35 37 39 40 39 39 39 38 38 38 38 37 35 34 33 31 31 30 29 28 26 25 23 22 23 24 24 24 24 23 23 23 22 21 18 17 17 17 17 17 17 17 16 16 16
4 8 9 8 9 9 8 7 9 13 9 2 4 9 11 10 12 14 12 9 5 3 4 8 7 5 8 4 5 9 11 12 17 20 20 25 28 30 31 32 35 39 41 42 42 41 40 40 40 38 37 36 36 36 35 34 32 31 31 31 30 28 27 25 24 23 23 24 24 24 24 24 23 23 21 20 18 18 18 18 17 17 17 17 16 16
3 8 11 11 8 7 6 3 9 15 8 2 7 7 5 5 7 9 8 5 5 5 8 9 10 7 8 5 5 6 8 12 16 16 18 25 30 31 31 33 35 39 43 44 43 42 41 40 39 39 38 36 36 35 35 34 33 32 32 32 31 30 28 27 26 25 24 24 24 25 25 25 24 23 22 21 20 20 19 19 18 18 17 17 16 15
1 3 8 9 7 8 7 3 8 13 8 9 10 8 7 4 3 3 1 2 4 6 8 10 15 11 8 6 6 7 9 12 12 12 14 21 27 30 31 33 34 38 44 45 44 44 43 41 40 39 39 38 37 36 35 35 34 34 33 33 33 31 30 29 27 26 25 25 26 26 26 26 25 23 22 23 22 22 21 20 19 18 17 16 16 15
3 4 4 5 7 8 8 6 7 7 7 9 7 7 7 4 2 3 2 2 5 6 6 8 14 13 11 7 6 9 12 12 12 12 14 17 25 32 34 35 35 38 45 45 44 45 44 43 42 41 41 40 39 38 36 36 36 35 35 34 34 32 31 30 29 28 27 27 27 27 27 26 26 25 24 24 24 22 21 20 18 17 17 17 16 16
6 7 2 3 6 9 9 7 6 4 5 8 6 8 7 3 4 4 3 4 5 5 2 3 10 10 10 9 7 8 11 13 14 15 16 17 23 29 34 37 37 39 44 45 45 46 44 44 44 42 42 41 41 40 39 37 37 37 36 35 35 34 32 32 31 30 29 28 28 28 28 27 27 26 25 25 24 23 21 20 19 18 17 16 16 16
6 4 4 5 4 8 12 9 7 6 6 9 8 9 8 5 6 6 3 2 4 5 1 4 8 7 5 8 12 14 17 18 17 18 18 14 14 20 27 33 34 37 42 44 46 47 46 46 45 44 43 42 42 41 40 39 38 38 37 37 36 35 33 32 32 31 30 29 29 29 29 29 28 28 27 26 25 24 22 20 19 18 16 15 15 14
8 6 7 9 4 7 13 10 7 7 7 9 7 7 8 6 6 5 4 4 4 3 1 5 6 6 4 2 6 12 17 17 16 17 17 14 15 16 19 25 29 33 40 45 48 48 48 48 47 45 45 43 42 41 41 41 39 39 38 38 38 36 34 34 33 32 31 30 29 30 31 31 30 29 28 27 25 24 22 20 19 17 15 15 14 13
9 7 5 6 4 8 11 7 6 8 7 7 4 6 8 6 5 3 2 4 3 2 2 5 4 4 3 5 7 7 9 12 14 14 15 17 19 17 17 23 29 33 39 45 48 49 49 49 48 47 46 44 43 42 42 42 40 40 39 39 38 37 35 35 34 33 32 31 31 31 32 33 32 31 29 28 26 24 22 20 19 17 15 14 13 13
6 5 4 5 4 8 10 8 9 9 6 4 5 7 4 3 5 4 1 1 2 4 4 4 4 3 2 8 9 7 8 11 11 11 14 16 18 19 21 26 31 36 41 45 48 50 51 50 50 49 48 46 45 44 43 42 40 39 39 39 39 38 37 36 35 34 33 33 33 33 34 34 34 33 31 30 28 25 23 21 19 16 15 15 14 14
4 5 6 9 10 11 11 11 11 11 7 4 7 8 4 2 2 2 3 3 4 7 4 4 7 6 3 4 3 2 7 12 11 11 12 10 14 20 24 29 34 37 41 44 47 50 51 50 51 50 49 48 46 44 42 40 39 39 39 39 39 39 39 38 36 35 34 34 35 35 36 36 35 34 32 30 28 26 24 22 19 17 16 16 15 15
5 5 4 9 12 9 8 9 10 10 6 1 4 9 6 4 4 2 4 5 5 7 4 5 7 6 6 5 3 4 6 9 11 10 8 8 14 20 23 29 34 36 39 42 45 48 50 50 51 51 50 49 47 45 42 40 40 40 40 39 39 39 39 39 38 37 36 35 36 37 37 37 36 35 33 31 29 26 24 22 20 18 16 16 16 16
5 6 4 4 6 5 6 7 10 10 6 1 3 8 3 3 5 4 4 4 6 7 4 5 6 4 6 6 6 9 8 7 10 9 7 11 16 21 23 28 33 37 39 41 44 46 48 50 50 50 50 49 47 45 42 42 42 40 39 39 40 40 40 40 39 37 36 36 37 37 38 37 36 35 34 32 30 27 25 23 21 18 17 16 16 16
5 6 6 2 2 4 6 7 11 12 9 5 7 8 4 2 1 2 3 2 4 6 4 6 7 4 4 5 8 12 10 9 11 10 8 9 15 22 27 30 34 38 40 41 43 44 46 47 48 48 49 48 47 45 44 44 43 41 41 40 40 40 41 41 41 39 38 38 38 38 39 38 38 36 35 33 31 28 26 24 21 18 17 16 16 16
5 4 6 4 4 7 8 9 12 14 12 10 9 8 9 7 4 5 6 3 2 4 4 5 7 4 5 6 9 11 10 10 11 9 8 10 14 19 24 29 34 37 39 41 41 42 43 45 46 46 47 47 47 46 45 45 44 43 43 41 40 41 41 41 41 40 40 39 39 40 40 39 38 37 37 35 33 31 28 25 22 19 17 17 17 16
5 3 6 8 7 9 8 6 7 11 13 13 12 11 11 9 8 9 8 4 3 3 1 1 6 4 4 5 8 10 9 10 11 9 8 14 20 19 16 22 29 33 37 38 39 40 41 43 44 44 44 44 44 45 44 44 45 45 43 42 41 41 41 40 41 41 40 40 41 41 40 40 39 40 39 38 36 34 30 26 23 20 19 18 17 16
5 2 5 7 6 6 5 2 2 2 7 12 13 12 12 12 13 11 5 3 5 5 4 2 5 4 3 2 5 7 7 9 11 13 12 16 24 22 15 17 23 28 32 34 37 39 39 40 42 42 42 42 43 43 44 44 45 45 44 44 43 42 41 41 41 42 41 42 43 42 41 41 43 43 43 41 38 34 29 26 23 21 19 18 16 15
6 4 5 6 5 5 6 6 5 3 5 8 8 9 12 16 14 7 1 2 5 8 10 7 6 5 3 1 1 4 8 9 12 15 15 16 23 23 17 17 19 23 27 31 34 37 38 39 40 40 40 41 42 42 43 43 43 43 44 45 45 44 43 42 43 43 42 42 43 43 43 45 47 46 44 41 37 32 29 27 24 21 20 17 14 14
5 4 6 8 8 9 9 8 7 5 4 4 4 6 10 15 14 7 3 5 7 6 8 9 6 4 2 2 3 5 7 9 13 15 14 17 25 25 21 19 18 20 25 29 32 35 37 38 38 39 39 39 40 40 41 41 41 41 43 44 45 45 44 44 45 44 43 43 44 45 46 48 49 47 45 42 37 33 31 29 26 24 21 18 16 17
2 3 9 11 10 10 9 7 6 6 7 8 8 10 11 12 14 9 5 7 5 4 6 9 6 6 6 6 6 7 8 9 12 11 12 21 30 29 24 20 18 20 25 28 31 34 35 36 37 37 37 37 37 38 38 37 38 39 40 41 43 44 45 46 46 45 44 44 46 48 49 49 49 48 45 42 38 34 31 28 27 26 23 20 19 20
2 4 11 13 13 14 14 12 10 11 13 14 14 15 14 14 15 14 11 8 5 5 8 7 6 9 10 8 9 10 9 8 8 9 14 23 30 27 22 19 19 21 25 28 31 34 35 36 36 36 35 35 35 35 35 35 36 36 37 38 40 42 43 44 44 44 44 45 47 49 49 49 49 48 45 41 39 37 33 32 30 28 24 21 20 19
3 6 10 12 15 16 18 17 12 11 14 15 17 18 17 17 17 16 14 10 8 8 11 7 8 10 10 10 10 10 10 10 13 18 22 23 25 23 20 20 22 23 26 29 32 34 35 36 35 34 33 32 33 33 33 33 34 33 34 35 37 38 39 39 40 41 42 45 47 48 48 48 47 47 44 44 45 43 38 38 37 34 29 26 25 24
2 5 6 9 14 15 17 16 12 12 13 12 15 17 17 19 20 19 18 16 14 13 12 9 11 12 11 10 10 11 13 13 14 18 19 19 22 22 21 22 24 26 29 32 33 34 34 34 32 31 30 30 30 30 30 30 29 29 30 32 33 34 35 35 36 39 40 42 44 45 45 45 44 44 43 44 47 44 38 37 38 38 35 32 30 29
1 2 1 5 9 11 13 14 12 14 15 15 16 16 15 16 17 17 16 13 13 11 9 7 8 9 8 7 7 8 9 8 9 11 13 18 21 22 22 24 26 29 31 33 34 35 34 33 31 29 28 28 27 26 26 25 24 26 27 28 29 30 31 32 34 36 37 39 40 41 41 42 42 42 40 40 43 42 39 40 41 41 40 36 33 31
2 2 0 2 4 6 7 9 12 15 16 17 19 17 14 12 12 12 11 9 10 10 8 7 6 6 7 7 6 7 6 6 8 10 13 18 21 22 25 27 28 30 32 33 34 33 33 31 30 28 26 25 23 22 21 21 22 23 24 24 25 26 27 29 30 32 34 35 37 38 39 39 40 39 38 39 41 41 42 46 47 46 45 40 34 32
3 3 2 1 3 4 2 3 6 8 9 11 14 16 16 13 10 10 9 9 11 11 9 8 8 8 7 6 6 8 8 8 11 14 18 21 22 25 28 29 30 31 32 32 31 31 31 30 28 26 24 22 21 20 19 19 19 18 17 18 19 21 23 25 27 29 31 33 35 36 36 37 38 37 38 40 40 40 43 48 49 48 46 40 34 33
5 7 4 2 3 3 2 2 2 5 7 7 7 12 17 18 17 15 13 12 13 11 6 4 5 7 6 6 8 10 10 11 14 18 19 19 20 24 26 26 27 28 29 29 28 29 30 28 25 24 24 22 21 19 17 15 12 10 10 12 14 16 19 21 23 26 28 31 33 34 35 36 36 37 38 39 39 40 43 46 48 48 44 37 33 36
6 9 5 2 3 3 1 1 4 5 5 3 2 3 11 15 18 18 13 9 11 11 7 6 7 8 7 7 9 8 7 9 10 12 13 15 16 19 21 21 20 22 25 26 27 28 27 25 24 23 22 20 17 14 12 9 8 8 8 8 10 11 14 16 20 23 26 29 31 32 34 36 35 36 38 38 38 39 43 45 46 47 42 35 34 37
1 6 5 2 2 2 1 2 3 3 4 5 4 1 3 5 9 11 8 6 9 10 10 11 11 8 5 6 7 6 5 5 4 3 6 10 12 14 16 17 16 19 23 25 26 25 22 19 18 17 15 14 13 13 13 12 11 9 7 6 6 7 10 12 16 20 23 26 28 30 32 33 34 35 36 37 38 38 41 45 46 44 40 35 35 35
5 1 5 3 1 2 3 3 4 5 5 4 2 1 2 1 3 6 7 8 9 9 9 10 10 7 5 5 7 8 8 7 4 0 2 5 9 11 13 14 15 17 20 19 17 16 14 14 14 15 17 18 18 17 16 14 12 10 9 8 6 6 7 10 13 17 21 24 27 28 30 31 33 34 35 36 38 38 40 43 43 40 38 36 36 35
7 3 3 5 2 1 3 4 3 6 5 2 2 4 5 7 6 4 5 5 6 7 9 10 9 8 8 7 8 13 11 7 5 1 1 4 8 10 10 11 11 12 12 13 14 17 19 22 23 23 23 22 20 18 15 13 11 9 8 6 4 4 6 8 11 15 18 21 24 26 27 29 31 33 34 34 36 37 38 39 38 37 37 37 36 35
8 5 1 6 5 2 3 4 4 5 3 3 5 7 10 11 9 5 5 6 6 8 10 11 10 10 9 9 12 14 11 7 5 1 2 6 9 10 12 14 16 17 18 20 24 27 28 29 27 25 23 21 19 16 13 11 8 6 5 3 2 4 6 7 10 13 15 18 21 24 25 26 29 31 33 33 33 35 36 36 35 35 37 37 35 36
6 4 1 6 7 3 2 4 4 4 2 7 10 13 17 14 6 4 7 5 5 7 9 10 10 9 9 12 14 10 5 5 6 6 9 13 13 15 20 24 25 27 28 29 30 30 28 26 25 23 21 18 16 13 10 8 6 4 3 2 3 5 6 7 8 10 13 16 20 22 22 24 27 29 31 30 31 31 32 33 35 36 38 37 35 37
3 3 2 4 7 5 4 5 5 4 1 7 14 20 19 11 4 7 6 2 2 4 7 8 9 8 8 11 11 6 4 11 18 19 20 22 23 25 28 30 32 33 32 31 29 27 25 23 22 20 18 15 13 10 9 7 5 4 4 4 6 6 7 7 8 9 12 16 19 20 21 22 23 25 27 27 26 27 28 30 34 38 39 38 37 37
3 3 4 3 3 4 4 4 6 4 1 9 21 22 13 4 4 4 2 5 4 3 6 8 8 9 8 8 10 12 16 21 26 28 28 29 32 34 33 34 35 34 32 30 28 25 23 22 20 17 15 13 11 10 9 7 6 5 5 5 6 6 7 8 8 10 12 15 17 18 19 20 20 21 23 24 25 28 29 29 33 39 40 39 39 38
5 4 3 4 4 1 2 2 4 3 3 13 20 14 4 3 4 2 3 6 6 7 11 12 12 14 17 19 19 20 23 26 30 34 35 35 36 36 35 35 36 34 31 29 27 24 21 19 17 15 14 12 11 9 8 6 5 5 5 5 5 6 8 9 9 10 12 13 15 17 17 17 17 18 20 22 25 28 28 29 33 39 41 40 39 38
3 3 3 4 4 3 3 2 1 2 5 12 12 6 6 10 11 6 4 7 8 10 14 17 18 19 23 25 24 25 29 32 34 37 37 36 34 33 32 31 31 29 28 26 24 21 18 17 15 13 11 10 9 8 6 5 5 5 6 5 6 7 8 9 10 10 11 12 13 15 16 16 16 17 18 20 24 26 26 28 33 39 41 40 38 37
3 2 2 3 3 3 2 2 2 1 6 10 9 9 12 13 10 8 8 10 10 11 14 16 19 23 26 29 31 32 33 34 35 35 35 35 34 33 31 29 27 25 23 21 19 16 14 13 12 10 9 8 7 6 5 4 5 6 6 6 6 7 9 10 10 10 10 12 12 13 14 15 16 16 18 21 24 24 24 26 33 38 39 37 36 36
5 5 2 1 3 3 1 1 3 3 4 7 10 12 13 11 11 12 13 14 14 16 18 18 21 24 28 32 35 34 32 33 34 33 32 32 32 31 29 26 22 20 17 16 15 13 11 10 9 7 7 7 6 6 6 6 7 7 7 7 7 8 10 10 10 10 11 12 12 12 14 16 16 17 20 22 23 22 21 25 32 36 37 36 36 36
6 10 7 1 5 4 2 4 5 6 5 4 7 11 12 12 13 15 19 19 20 22 24 24 24 25 27 30 32 30 28 29 29 28 27 26 25 24 23 20 18 16 14 14 14 12 9 8 7 6 6 6 6 7 8 9 9 9 8 8 7 9 11 11 11 11 12 12 12 13 14 16 17 18 21 23 22 20 21 25 31 35 36 36 35 34
6 11 9 1 5 1 1 6 9 9 10 8 6 10 13 13 14 18 22 23 23 25 26 26 25 25 25 26 26 27 27 26 25 25 24 23 22 21 21 19 18 17 15 14 12 10 8 7 7 7 5 5 6 7 8 9 9 9 8 8 8 9 11 12 12 13 13 13 12 13 15 16 17 19 21 23 22 21 21 24 30 34 36 35 35 34
8 8 7 2 2 1 1 6 11 12 8 6 6 9 13 15 17 21 26 27 27 28 28 29 29 28 27 26 24 25 26 24 23 23 22 21 21 20 19 18 17 15 14 13 12 10 9 8 9 8 7 6 5 6 7 7 8 9 9 9 9 9 11 12 13 13 13 12 12 13 14 15 16 18 21 24 23 23 23 24 27 31 34 35 34 32
7 4 5 4 4 3 2 6 8 8 7 6 7 13 18 19 18 21 25 28 30 30 30 30 30 29 27 26 24 25 26 24 22 20 20 19 17 16 15 15 14 14 13 12 11 9 8 8 8 8 7 6 5 5 6 7 9 9 9 8 8 9 10 11 11 12 13 12 12 12 13 14 15 18 21 22 22 22 23 24 25 27 30 30 29 28
5 4 6 5 3 1 2 3 3 1 7 10 10 14 19 19 18 19 22 25 27 28 27 27 28 28 27 25 23 23 24 23 20 18 18 18 15 12 11 11 10 11 10 10 9 8 6 6 5 5 4 3 3 3 4 5 6 7 7 8 9 9 9 10 11 12 11 10 10 12 13 12 13 17 20 20 18 19 19 20 21 22 23 23 24 24
Wind_Direction
180 185 202 198 186 180 181 190 187 175 188 183 177 203 203 197 200 173 130 151 171 187 211 209 225 235 216 182 188 189 190 197 200 197 198 196 195 196 198 202 207 214 218 219 219 218 219 218 217 218 217 217 216 215 214 215 216 216 218 220 222 222 222 221 221 222 223 223 224 225 227 230 232 234 236 238 238 238 239 243 250 257 262 267 272 275
188 207 203 190 185 180 183 183 157 148 189 184 180 198 213 213 199 160 139 150 170 192 214 214 247 250 238 204 193 191 195 202 202 201 202 199 198 199 201 205 210 215 217 219 222 221 221 220 218 219 218 217 216 215 215 215 215 215 217 219 220 221 222 222 222 223 224 224 224 226 229 232 234 236 238 240 240 241 245 250 256 261 264 265 270 274
199 219 196 177 180 172 170 178 166 161 178 189 188 191 210 206 139 133 150 150 166 199 211 196 235 244 237 214 203 199 206 211 207 204 205 202 200 202 204 207 210 211 214 220 223 221 221 220 219 219 218 217 216 216 216 216 216 217 217 218 218 220 222 224 224 224 224 225 225 228 231 235 238 242 243 244 244 244 248 251 255 260 262 263 269 273
201 220 185 162 163 161 149 173 172 161 175 189 184 193 205 174 168 188 169 158 164 189 199 171 228 251 226 215 216 210 213 219 215 210 210 208 206 208 209 210 210 211 215 221 223 221 220 220 220 220 218 217 218 219 220 218 218 218 218 217 217 219 221 224 225 225 225 226 227 229 233 236 237 239 241 244 245 244 245 248 251 256 259 263 268 270
219 257 159 156 171 177 164 168 176 173 186 195 192 203 198 167 192 204 143 145 153 139 123 150 239 259 216 215 223 211 213 220 218 213 214 216 215 216 215 214 216 218 221 222 222 221 220 219 220 220 219 219 220 221 221 220 220 219 218 217 218 219 221 222 223 224 225 226 227 228 230 233 234 234 235 237 239 240 242 246 252 256 259 264 265 266
235 287 154 162 176 188 176 173 186 186 186 201 209 211 197 176 187 162 136 147 168 212 197 174 243 260 199 214 225 200 202 216 216 214 218 218 217 219 217 216 218 221 224 224 223 222 220 220 220 221 222 222 223 222 222 221 220 220 219 218 218 219 219 220 220 221 223 225 225 225 226 227 228 231 233 235 237 241 244 248 255 259 261 261 259 259
227 161 166 174 173 183 190 190 191 189 188 202 198 194 189 176 171 158 159 173 198 221 188 179 222 256 201 213 218 195 200 213 212 217 222 219 216 217 217 217 218 219 222 224 225 224 224 223 222 222 223 224 224 222 222 222 221 221 221 220 219 218 217 217 217 218 220 222 223 223 225 227 229 232 236 238 241 245 249 252 255 257 258 258 257 256
178 164 178 192 180 183 196 195 188 190 196 195 163 173 177 172 172 168 172 191 202 161 156 182 210 253 256 231 186 189 207 214 214 220 224 220 218 217 216 218 219 221 222 224 225 225 226 226 225 224 224 224 224 223 222 222 222 221 221 221 220 218 217 216 216 216 218 220 222 223 225 228 231 235 239 242 243 246 250 251 253 253 254 254 254 255
159 185 186 185 190 197 200 185 172 184 201 200 137 168 177 178 180 175 183 200 186 159 188 189 188 232 255 242 133 180 208 218 221 221 221 220 218 217 216 216 220 224 226 227 228 227 227 227 227 226 226 225 225 225 224 223 222 222 221 222 221 220 219 218 217 218 219 221 223 225 227 230 232 235 239 241 242 245 247 249 251 252 252 253 254 257
168 205 194 185 195 204 203 174 168 185 202 132 122 129 134 157 170 175 196 192 149 203 218 185 178 211 252 228 147 168 212 224 225 222 220 219 217 216 215 215 217 223 227 229 230 231 230 230 229 228 228 228 227 226 225 223 224 224 223 223 222 222 221 220 220 221 223 224 225 227 228 231 233 235 236 238 239 241 243 246 249 251 252 254 257 260
197 203 187 195 208 193 190 183 181 190 173 128 126 112 93 90 121 133 181 144 151 220 226 190 186 205 253 237 170 182 215 217 218 222 221 217 216 216 216 215 214 218 225 228 229 232 234 233 232 231 230 230 229 227 226 224 225 225 224 224 223 223 222 223 223 223 225 226 226 228 229 231 233 235 236 237 238 239 240 243 246 250 251 254 258 261
242 213 173 209 212 180 181 193 198 198 161 146 144 134 126 105 120 116 81 169 200 222 227 203 192 203 240 243 183 201 223 218 214 221 218 212 214 215 215 216 214 216 223 226 227 230 232 233 232 232 232 231 229 228 227 225 225 225 225 224 224 224 223 224 224 224 226 227 227 228 230 231 233 234 235 237 239 239 240 243 247 249 249 251 255 259
227 220 193 228 204 180 187 191 188 190 181 182 166 156 168 163 168 180 175 194 214 225 239 180 186 205 241 255 244 232 237 232 225 227 223 214 212 212 212 213 213 216 221 223 225 228 229 230 231 231 231 230 229 228 227 227 226 226 225 224 224 225 224 224 225 226 227 228 228 229 230 231 233 234 235 236 239 240 241 244 247 248 248 251 256 261
208 223 216 221 212 186 194 196 188 179 186 194 174 171 186 175 181 192 174 185 224 230 269 127 180 214 248 256 251 242 244 240 230 234 236 229 221 217 214 213 213 216 219 221 224 226 227 229 230 231 231 230 229 229 229 228 227 227 226 225 225 225 225 226 226 227 229 229 229 229 230 232 232 232 234 234 236 238 239 242 245 247 249 253 259 264
204 220 197 198 193 175 196 212 195 160 177 198 182 185 198 180 192 197 176 195 199 200 141 132 178 211 191 231 245 236 252 258 245 240 237 232 235 231 219 212 211 214 218 221 224 225 228 229 231 231 232 231 230 229 229 229 228 228 228 227 226 226 226 226 227 228 230 230 230 229 230 231 231 232 233 233 235 236 237 240 242 243 246 252 259 263
212 233 186 191 195 174 193 207 168 157 183 197 173 202 210 182 179 188 184 197 167 153 176 170 212 230 217 307 293 246 261 268 254 243 230 223 223 220 212 207 207 211 215 220 222 224 227 228 230 231 231 231 231 229 229 229 228 228 228 228 227 227 227 228 228 230 231 230 230 230 230 230 230 230 231 232 233 234 234 236 238 239 244 250 255 257
209 225 166 180 212 195 194 177 171 192 191 157 182 207 205 150 171 178 157 82 140 214 197 174 232 249 253 284 273 248 253 254 246 237 229 218 204 205 208 206 208 212 215 219 221 223 225 226 227 229 230 231 230 229 229 229 229 228 228 228 228 227 228 229 230 231 232 231 230 230 230 230 229 229 229 230 232 232 233 235 235 235 241 247 251 253
205 215 175 187 210 213 205 189 194 204 175 153 200 182 106 55 214 192 201 168 184 223 206 172 221 225 204 244 258 243 248 250 247 233 226 207 189 204 213 210 213 216 217 221 222 224 225 225 225 226 228 230 230 230 230 230 229 229 230 230 229 228 228 228 229 231 232 231 229 229 229 229 229 229 230 231 232 233 235 236 234 234 239 246 249 251
198 225 194 196 209 198 182 196 210 203 182 209 195 159 139 202 195 168 212 194 192 223 212 186 217 226 213 215 231 242 241 251 257 240 215 199 198 209 213 212 216 216 216 220 221 222 223 223 224 225 226 228 229 230 231 231 230 230 231 232 231 231 230 230 230 231 232 232 230 230 230 230 230 231 232 233 233 234 236 237 234 234 241 246 250 252
180 226 214 193 205 171 156 195 214 204 187 42 161 167 185 227 189 182 199 185 201 221 216 199 210 213 213 210 216 234 239 246 259 254 220 211 211 213 213 211 212 214 215 217 218 221 221 222 224 225 226 227 228 230 230 231 231 230 231 232 231 232 231 231 232 232 233 233 231 231 231 231 231 231 232 233 234 235 235 236 234 234 241 246 249 251
169 219 223 171 130 176 189 198 213 211 193 186 192 186 188 196 172 204 199 170 210 215 205 219 225 196 191 207 212 225 232 230 243 254 243 226 218 220 222 218 215 215 216 216 217 220 222 222 223 223 225 227 228 229 228 228 230 230 230 231 231 232 231 231 232 233 234 233 233 233 232 231 231 232 233 234 235 235 235 235 234 235 241 247 249 250
174 194 217 199 170 203 207 193 210 219 205 197 204 197 192 189 173 203 211 186 204 219 196 220 241 212 173 195 211 218 228 229 234 244 255 255 244 235 230 224 221 220 217 217 218 220 221 222 221 221 223 224 226 227 226 227 229 230 230 230 231 232 233 233 233 233 234 234 234 234 233 233 233 234 235 235 235 234 233 233 232 232 237 242 245 248
170 166 213 218 216 216 209 181 203 224 211 201 207 205 202 202 198 210 217 179 173 218 131 201 251 231 168 188 210 215 226 238 240 239 250 261 260 256 242 228 225 223 220 219 218 219 220 221 220 220 222 224 225 226 226 227 228 230 231 231 232 232 234 235 235 235 235 235 235 234 233 234 235 235 235 234 233 232 231 231 230 230 233 237 240 244
155 152 206 223 240 237 229 179 126 230 210 206 211 204 201 209 214 221 219 172 190 196 163 194 240 211 162 182 219 235 250 257 254 242 238 254 261 262 253 236 228 223 221 219 216 218 219 221 221 220 222 224 224 225 226 226 228 230 231 232 232 233 235 235 236 237 236 235 236 235 233 233 233 234 234 233 232 232 231 232 230 229 233 237 239 243
172 189 195 209 229 232 227 214 199 199 203 213 215 203 206 209 208 213 134 150 219 199 185 213 230 190 169 146 198 244 256 259 257 246 238 249 259 259 254 244 233 224 221 217 215 216 219 220 221 220 222 223 223 224 225 227 229 230 231 233 233 234 235 236 237 238 237 236 237 236 235 233 232 233 235 235 233 230 229 229 229 230 231 232 238 247
188 193 183 200 218 219 218 217 213 200 191 216 215 196 209 206 195 183 149 205 223 188 187 221 227 183 187 235 218 226 238 249 254 249 243 249 256 258 254 246 233 222 220 216 213 214 216 218 219 219 220 222 223 225 226 228 230 231 233 234 234 235 236 236 237 238 238 237 236 237 236 234 233 233 234 236 234 230 227 225 224 226 225 226 234 240
190 191 189 200 215 219 220 216 196 180 188 209 212 200 202 202 196 189 197 216 205 154 202 222 218 211 208 205 218 222 219 235 248 247 242 246 251 254 253 246 232 223 219 214 211 211 212 216 217 218 219 221 223 226 228 229 231 232 234 235 235 236 237 238 239 239 239 237 237 239 238 237 237 235 234 235 235 231 226 223 222 222 223 227 232 236
173 214 201 203 213 219 223 218 195 191 204 209 211 210 200 193 196 200 213 210 153 164 221 209 190 216 211 196 211 219 217 227 242 242 239 243 246 249 248 239 225 219 216 210 210 210 211 214 216 217 219 221 224 226 227 230 231 233 236 236 237 237 238 241 242 241 240 238 238 240 240 240 240 237 234 233 234 231 224 221 222 220 222 225 224 228
211 228 202 205 219 221 225 223 201 196 214 213 211 212 202 193 195 201 214 205 163 202 232 200 180 208 209 204 212 216 215 217 226 233 237 242 245 245 240 226 215 213 211 209 210 210 211 213 214 217 219 221 223 225 226 229 231 234 236 237 238 239 241 245 244 243 241 240 241 242 242 242 240 237 233 230 231 231 223 220 221 221 224 227 224 225
254 241 199 205 223 228 231 230 205 197 219 223 217 213 204 199 198 201 210 204 191 214 229 198 191 207 209 209 212 217 222 225 233 238 237 237 237 233 225 215 209 210 211 211 210 209 211 213 214 216 219 221 222 223 225 228 231 233 235 236 239 240 243 245 245 243 242 242 245 245 244 242 239 237 234 228 228 227 220 219 222 223 226 228 228 230
278 264 184 193 223 235 235 232 217 208 218 226 226 221 210 204 202 204 211 203 194 213 228 204 202 217 222 221 227 239 242 239 241 237 227 226 224 218 214 212 210 211 213 213 210 208 208 210 211 214 217 219 221 222 224 227 230 233 234 237 239 241 243 245 244 244 244 245 247 247 244 242 240 239 236 227 222 219 219 225 226 225 226 226 228 228
306 294 337 164 229 240 230 237 232 216 215 227 230 223 211 204 204 208 208 194 188 203 217 215 215 229 234 225 228 247 251 238 237 235 229 228 221 214 214 214 213 213 213 212 209 206 207 207 208 211 212 215 219 220 222 225 228 231 234 237 241 242 244 246 245 246 247 247 247 247 245 242 241 240 236 227 220 217 222 229 227 224 225 224 227 224
327 312 319 319 266 263 268 269 240 209 211 230 231 222 213 203 202 210 209 200 200 201 205 211 215 226 228 203 198 223 226 224 235 237 234 230 224 220 221 221 218 214 211 210 209 206 207 207 207 209 209 210 211 212 216 223 230 236 241 244 248 248 248 249 249 250 249 247 246 245 244 243 241 238 234 229 225 224 226 227 225 224 224 225 225 216
334 316 309 298 268 278 353 65 163 196 219 228 219 216 214 207 204 210 211 210 211 209 208 222 223 222 217 193 196 213 215 218 236 244 245 240 229 224 225 224 220 213 208 209 210 209 208 207 207 209 210 210 211 214 221 227 232 238 240 243 246 247 249 251 251 251 249 246 245 244 244 244 241 238 236 234 232 229 228 227 224 223 224 225 220 209
342 321 304 258 260 280 4 153 202 221 243 282 343 218 215 215 213 213 215 217 213 209 212 232 232 223 215 207 209 220 223 225 240 258 263 256 243 231 227 226 223 215 209 206 207 208 207 204 205 210 213 214 214 212 209 201 192 191 201 216 229 239 246 249 250 250 247 245 245 244 244 244 243 240 237 235 234 233 231 229 225 222 223 223 215 208
50 308 293 261 260 271 269 238 248 282 307 311 330 64 170 199 201 204 222 233 215 208 211 220 227 223 214 222 227 228 222 212 217 268 267 250 241 234 229 228 225 219 214 208 204 204 203 202 204 205 201 192 180 168 158 151 150 154 162 180 204 226 239 246 249 249 247 247 246 245 246 246 246 242 237 234 236 235 233 229 225 223 224 219 210 210
122 263 289 286 277 290 296 280 275 294 287 258 239 88 91 155 186 198 220 216 196 197 207 217 232 231 213 222 214 184 170 174 178 346 304 230 218 213 213 216 217 216 216 211 202 193 184 174 167 161 155 148 143 139 136 135 138 142 150 165 183 207 229 243 249 249 248 248 247 248 249 249 246 242 238 237 237 236 234 230 227 227 223 213 208 213
112 121 296 297 296 305 303 303 297 286 273 203 103 34 4 332 314 290 254 214 182 189 203 211 224 217 197 191 176 162 160 178 199 196 38 202 201 198 193 191 191 193 192 179 162 150 144 140 137 137 136 131 129 128 128 131 136 139 147 159 172 202 231 245 248 249 250 249 249 251 251 250 247 243 240 241 241 238 235 231 228 226 218 208 208 216
105 101 339 297 297 298 297 315 308 279 286 32 31 1 344 330 322 299 243 215 186 188 199 205 210 206 194 177 165 161 165 183 199 181 120 158 171 169 159 148 144 144 144 142 138 135 133 131 130 128 127 126 127 127 127 128 127 128 137 151 187 233 253 259 257 257 257 254 254 254 252 250 247 242 240 244 245 241 237 235 233 225 212 205 210 216
106 92 359 289 292 296 281 299 290 261 327 19 4 339 327 322 314 229 218 203 162 168 185 195 201 199 183 165 158 162 184 178 153 128 129 137 142 143 139 134 132 133 132 131 129 128 127 127 126 124 123 125 126 125 126 129 131 141 163 198 232 247 257 265 268 268 264 257 255 255 253 250 247 243 241 244 246 241 238 238 234 220 207 206 211 214
112 118 134 260 278 285 272 276 284 271 14 15 349 333 323 311 253 207 218 219 108 154 171 178 181 175 171 167 158 144 118 123 125 124 124 124 124 126 127 128 128 128 127 126 125 123 122 122 122 121 120 123 128 133 142 148 156 176 202 223 238 247 255 262 268 267 262 257 255 254 252 250 248 245 244 244 243 238 234 235 228 214 206 208 211 212
141 144 138 175 242 284 275 270 291 285 76 10 343 332 322 283 219 210 296 352 10 98 124 128 135 134 129 124 117 111 114 121 123 121 119 117 117 117 119 120 121 120 119 119 118 120 122 122 121 121 123 130 141 149 155 162 174 193 212 231 245 254 261 264 266 265 262 259 256 253 251 249 248 246 242 238 234 230 231 232 223 211 206 209 211 214
158 160 167 170 170 207 244 252 293 283 20 7 349 338 346 336 301 302 32 23 30 76 96 96 98 109 111 105 102 105 110 114 115 114 113 111 110 111 113 116 116 116 117 118 118 119 122 122 121 123 127 134 141 146 154 166 183 199 213 233 249 261 267 268 266 264 263 259 255 252 250 247 245 243 239 232 227 227 231 230 220 210 208 211 215 218
151 159 185 182 169 175 204 208 256 294 354 10 4 340 327 329 318 319 58 66 57 69 86 88 89 99 108 108 106 105 104 104 106 107 108 107 105 105 105 107 109 112 116 119 119 121 123 124 124 126 131 138 145 152 162 174 190 204 215 233 253 268 273 268 260 258 260 258 252 248 245 242 239 236 232 226 223 228 233 229 218 211 211 215 219 222
5 319 213 189 174 168 197 200 143 22 350 8 15 346 333 339 343 0 52 72 62 63 78 87 92 98 103 103 102 100 99 100 100 101 102 103 103 102 98 96 96 97 100 104 107 110 117 123 126 132 139 146 155 165 175 194 214 223 230 239 253 269 274 265 254 250 252 252 248 243 238 235 231 227 224 220 222 228 232 224 214 211 212 217 222 225
5 351 316 196 154 126 91 161 137 103 22 8 11 1 356 6 19 35 57 67 64 69 79 86 93 98 100 100 99 97 98 100 99 98 99 99 99 101 100 96 90 86 87 93 97 102 112 121 128 144 157 165 179 193 209 227 235 239 245 247 256 270 272 261 250 244 245 246 245 240 235 230 224 219 218 219 221 225 226 218 212 211 214 220 224 228
15 8 357 215 167 159 182 181 154 123 110 74 18 14 23 30 38 56 68 71 73 77 80 83 89 94 95 97 96 96 98 101 100 99 100 99 97 99 101 100 96 96 100 104 106 112 123 130 137 151 162 174 190 205 219 228 235 244 253 258 265 270 267 259 250 244 242 242 240 237 233 227 220 215 215 218 220 222 222 219 217 217 219 223 228 232
353 354 350 258 175 183 225 160 130 108 111 111 66 36 39 43 53 70 78 80 82 82 80 81 84 86 87 90 94 95 95 96 98 98 98 99 98 97 98 100 103 105 107 109 113 119 126 134 144 153 162 171 188 206 219 230 242 255 262 264 266 266 264 260 253 247 243 241 239 238 233 226 219 215 215 217 219 222 222 220 221 223 225 229 234 237
318 321 336 311 179 76 43 144 122 107 112 127 109 91 85 80 81 84 87 88 86 84 82 81 80 81 83 86 90 93 91 89 93 95 95 94 94 94 95 98 101 103 106 112 119 125 130 137 144 154 168 183 200 219 232 246 258 263 263 260 257 258 260 259 255 250 246 242 241 239 231 222 217 215 216 218 220 221 219 216 218 223 228 233 238 239
329 321 341 306 213 159 158 174 147 124 132 151 138 126 119 111 103 95 90 89 89 87 85 83 81 81 82 81 83 87 87 85 88 92 92 90 89 91 95 97 101 106 110 114 120 127 136 144 149 160 179 198 220 239 252 262 264 263 260 255 249 250 254 254 252 251 248 241 236 231 221 213 210 210 213 219 221 218 214 213 216 222 229 235 239 243
326 308 313 289 255 12 61 166 203 113 115 123 128 129 124 119 114 104 94 91 91 89 86 84 82 80 79 78 78 81 82 83 85 88 88 84 81 87 94 98 103 110 115 120 123 126 136 145 151 166 185 203 233 260 277 278 274 268 260 250 241 241 244 244 245 247 245 235 221 212 205 201 205 212 215 214 213 212 211 215 221 226 231 236 241 244